Meteopurmerend
purmerend
Purmerend - Baaienwijk



My webcam  My webcam


Onweer radar Meer informatie blitzortung!


Regen radar Meer informatie rain snow radar


Bezoek onze andere website:

CandyAppleRed WebdesignWebdesign Purmerend Candy Apple Red

MeteopurmerendBlog

Template documentation
and downloads



Het weer levert geen direct gevaar op.    Er zijn geen waarschuwingen afgegeven.

15 daagse weersverwachting Ravenna (IT)

  • Overzicht
  • Per uur
  • 15 dagen
  • Extra
  • Vergelijk
  • Kaarten
  • Dagkaart
  • Meer »
  • Info
  • Statistieken
  • Directe link
    Temp 6h Neerslag Wind  
 05:34     20:43    Daglengte: 15:09 Vandaag
08:00
21°
 
2
14:00
25°
 
5
20:00
24°
 
3
 05:34     20:44    Daglengte: 15:10 Morgen
02:00
20°
 
1
08:00
21°
 
1
14:00
28°
 
3
20:00
25°
 
3
 05:33     20:45    Daglengte: 15:12 Zaterdag 28 Mei
02:00
21°
 
1
08:00
22°
 
3
14:00
25°
 
6
20:00
21°
0.8 mm
6
 05:32     20:46    Daglengte: 15:14 Zondag 29 Mei
02:00
18°
3.4 mm
6
Locatie info
Region: Emilia Romagna
Latitude: 44.4118°N
Longitude: 12.2041°E
9 masl
Postcode: 48121
Temp/Neerslag /Baro Onweer/Dauwpunt
    Temp Baro 1h Neerslag Dauwpunt Wind UV Bewolking  
 05:34     20:43    Daglengte: 15:09 Vandaag
08:00
21°
1019.1 hPa
12%
18.5°
2
Windvlaag: 3.6 m/s
58%
09:00
22°
1019.5 hPa
57%
18.2°
2
Windvlaag: 3.8 m/s
60%
10:00
23°
1019.7 hPa
20%
18.0°
2
Windvlaag: 3.5 m/s
46%
11:00
24°
1019.9 hPa
12%
18.4°
3
Windvlaag: 2.3 m/s
16%
12:00
25°
1020.1 hPa
11%
19.3°
4
Windvlaag: -1.8 m/s
48%
13:00
25°
1019.9 hPa
11%
18.8°
5
Windvlaag: -2.8 m/s
20%
14:00
25°
1019.7 hPa
11%
17.9°
5
Windvlaag: -2.8 m/s
22%
15:00
25°
1019.6 hPa
17%
17.3°
5
Windvlaag: -2.1 m/s
26%
16:00
25°
1019.4 hPa
18%
15.6°
5
Windvlaag: -0.5 m/s
47%
17:00
25°
1019.3 hPa
11%
14.4°
4
Windvlaag: 0.7 m/s
52%
18:00
25°
1018.8 hPa
11%
13.7°
3
Windvlaag: 0.7 m/s
52%
19:00
25°
1018.8 hPa
11%
13.2°
3
Windvlaag: 1.7 m/s
14%
20:00
24°
1018.7 hPa
11%
13.5°
3
Windvlaag: 1.8 m/s
42%
21:00
23°
1018.7 hPa
11%
14.6°
2
Windvlaag: 2.5 m/s
59%
22:00
22°
1019.2 hPa
12%
15.9°
1
Windvlaag: 0.9 m/s
77%
23:00
21°
1019.3 hPa
12%
16.5°
1
Windvlaag: 0.4 m/s
50%
 05:34     20:44    Daglengte: 15:10 Morgen
00:00
21°
1019.4 hPa
52%
16.9°
1
Windvlaag: 0.3 m/s
77%
01:00
21°
1019.2 hPa
12%
17.3°
1
Windvlaag: 0.4 m/s
78%
02:00
20°
1018.9 hPa
13%
17.7°
1
Windvlaag: 0.2 m/s
80%
03:00
20°
1018.7 hPa
12%
17.7°
1
Windvlaag: -0.6 m/s
74%
04:00
20°
1018.4 hPa
14%
17.8°
1
Windvlaag: -1.1 m/s
81%
05:00
20°
1018.0 hPa
12%
17.9°
1
Windvlaag: 0.2 m/s
63%
06:00
20°
1018.1 hPa
12%
17.6°
2
Windvlaag: 3 m/s
60%
07:00
20°
1018.4 hPa
12%
17.5°
1
Windvlaag: 2.8 m/s
59%
08:00
21°
1018.4 hPa
13%
17.4°
1
Windvlaag: 0.3 m/s
19%
09:00
23°
1018.4 hPa
12%
18.0°
1
Windvlaag: -1.1 m/s
19%
10:00
25°
1018.4 hPa
12%
18.0°
1
Windvlaag: -2.9 m/s
31%
11:00
26°
1018.2 hPa
13%
17.8°
2
Windvlaag: -3.5 m/s
57%
12:00
27°
1017.9 hPa
12%
17.3°
2
Windvlaag: -3.5 m/s
50%
13:00
28°
1017.5 hPa
14%
16.3°
2
Windvlaag: -2.4 m/s
32%
14:00
28°
1016.9 hPa
12%
15.3°
3
Windvlaag: -0.3 m/s
27%
15:00
28°
Voelt als: 28.0°
1016.0 hPa
12%
14.2°
4
Windvlaag: -0.1 m/s
24%
16:00
28°
Voelt als: 28.0°
1015.1 hPa
12%
13.5°
4
Windvlaag: 1 m/s
11%
17:00
28°
Voelt als: 27.8°
1014.4 hPa
12%
13.0°
4
Windvlaag: 2.3 m/s
21%
18:00
28°
Voelt als: 27.4°
1013.7 hPa
12%
12.6°
3
Windvlaag: 3.9 m/s
26%
19:00
27°
Voelt als: 26.6°
1013.2 hPa
12%
11.6°
3
Windvlaag: 4.9 m/s
29%
20:00
25°
1013.1 hPa
12%
12.1°
3
Windvlaag: 5.6 m/s
23%
21:00
24°
1012.9 hPa
12%
12.7°
3
Windvlaag: 5.1 m/s
22%
22:00
23°
1012.7 hPa
12%
13.6°
2
Windvlaag: 2.4 m/s
35%
23:00
22°
1012.6 hPa
12%
14.6°
2
Windvlaag: 3.1 m/s
20%
 05:33     20:45    Daglengte: 15:12 Zaterdag 28 Mei
00:00
22°
1012.2 hPa
12%
14.7°
2
Windvlaag: 3 m/s
45%
01:00
22°
1011.8 hPa
12%
14.9°
2
Windvlaag: 2.7 m/s
62%
02:00
21°
1011.2 hPa
13%
16.0°
1
Windvlaag: 2 m/s
57%
03:00
20°
1010.8 hPa
13%
17.3°
1
Windvlaag: 2.4 m/s
51%
04:00
20°
1010.4 hPa
17%
18.1°
2
Windvlaag: 3.9 m/s
46%
05:00
20°
1009.8 hPa
22%
17.8°
1
Windvlaag: 3.6 m/s
50%
06:00
20°
1009.5 hPa
21%
18.4°
2
Windvlaag: 0.6 m/s
56%
07:00
21°
1009.6 hPa
22%
17.1°
2
Windvlaag: -1.4 m/s
27%
08:00
22°
1009.7 hPa
21%
17.6°
3
Windvlaag: -2.4 m/s
53%
09:00
23°
1009.7 hPa
27%
17.2°
3
Windvlaag: -0.9 m/s
65%
10:00
24°
1009.4 hPa
32%
17.1°
3
Windvlaag: 0.5 m/s
51%
11:00
25°
1009.4 hPa
25%
17.0°
5
Windvlaag: 1.8 m/s
69%
12:00
25°
1009.3 hPa
22%
16.2°
5
Windvlaag: 1.6 m/s
64%
13:00
25°
1008.9 hPa
31%
15.9°
6
Windvlaag: 1.4 m/s
37%
14:00
25°
1008.4 hPa
24%
16.1°
6
Windvlaag: 1.6 m/s
38%
15:00
25°
1008.0 hPa
22%
15.4°
6
Windvlaag: 1.5 m/s
72%
16:00
24°
1007.8 hPa
21%
14.4°
6
Windvlaag: 1.4 m/s
65%
17:00
24°
1007.4 hPa
22%
14.0°
6
Windvlaag: 0.2 m/s
71%
18:00
23°
1007.2 hPa 0.2 mm
21%
13.2°
6
Windvlaag: -1.5 m/s
81%
19:00
22°
1007.3 hPa 0.5 mm
24%
12.9°
6
Windvlaag: -0.5 m/s
71%
20:00
21°
1007.3 hPa 0.2 mm
30%
12.7°
6
Windvlaag: 1 m/s
74%
21:00
20°
1007.4 hPa 0.9 mm
83%
13.1°
5
Windvlaag: 0.2 m/s
85%
22:00
19°
1007.7 hPa 0.9 mm
92%
12.3°
6
Windvlaag: -1.4 m/s
79%
23:00
19°
1008.1 hPa 1.3 mm
84%
11.1°
7
Windvlaag: -3.7 m/s
70%
 05:32     20:46    Daglengte: 15:14 Zondag 29 Mei
00:00
19°
1007.9 hPa
32%
11.4°
6
Windvlaag: 10.4 m/s
56%
01:00
18°
1007.8 hPa 0.2 mm
99%
10.9°
6
Windvlaag: 10.7 m/s
92%
02:00
18°
1007.0 hPa 0.1 mm
99%
9.4°
6
Windvlaag: 11 m/s
95%
03:00
17°
1006.4 hPa 0.3 mm
100%
9.4°
5
Windvlaag: 10.5 m/s
89%
04:00
17°
1005.8 hPa 0.5 mm
100%
9.6°
5
Windvlaag: 9.5 m/s
87%
05:00
17°
1005.1 hPa 0.8 mm
100%
9.8°
4
Windvlaag: 9.4 m/s
88%
06:00
17°
1005.0 hPa 1.3 mm
100%
9.5°
4
Windvlaag: 8.6 m/s
88%
07:00
17°
1004.8 hPa 1.7 mm
100%
8.6°
4
Windvlaag: 9.6 m/s
87%
Temp/Neerslag /Baro Onweer/Dauwpunt
    Temp Baro Neerslag Dauwpunt Wind Bewolking  
 05:34     20:43    Daglengte: 15:09 Vandaag
08:00
21°
1019.1 hPa   18.5°
2
58%
11:00
24°
1019.9 hPa   18.4°
3
16%
14:00
25°
1019.7 hPa   17.9°
5
22%
17:00
25°
1019.3 hPa   14.4°
4
52%
20:00
24°
1018.7 hPa   13.5°
3
42%
23:00
21°
1019.3 hPa   16.5°
1
50%
 05:34     20:44    Daglengte: 15:10 Morgen
02:00
20°
1018.9 hPa   17.7°
1
80%
05:00
20°
1018.0 hPa   17.9°
1
63%
08:00
21°
1018.4 hPa   17.4°
1
19%
11:00
26°
1018.2 hPa   17.8°
2
57%
14:00
28°
1016.9 hPa   15.3°
3
27%
17:00
28°
Voelt als: 27.8°
1014.4 hPa   13.0°
4
21%
20:00
25°
1013.1 hPa   12.1°
3
23%
23:00
22°
1012.6 hPa   14.6°
2
20%
 05:33     20:45    Daglengte: 15:12 Zaterdag 28 Mei
02:00
21°
1011.2 hPa   16.0°
1
57%
05:00
20°
1009.8 hPa   17.8°
1
50%
08:00
22°
1009.7 hPa   17.6°
3
53%
11:00
25°
1009.4 hPa   17.0°
5
69%
14:00
25°
1008.4 hPa   16.1°
6
38%
17:00
24°
1007.4 hPa   14.0°
6
71%
20:00
21°
1007.3 hPa 0.8 mm 12.7°
6
74%
23:00
19°
1008.1 hPa 3.0 mm 11.1°
7
70%
 05:32     20:46    Daglengte: 15:14 Zondag 29 Mei
02:00
18°
1007.0 hPa 0.3 mm 9.4°
6
95%
05:00
17°
1005.1 hPa 1.6 mm 9.8°
4
88%
08:00
17°
1004.7 hPa 3.3 mm 8.1°
4
84%
11:00
15°
1010.9 hPa 10.1 mm 10.6°
2
1%
14:00
15°
1010.3 hPa 11.0 mm 11.7°
1
1%
17:00
16°
1009.2 hPa 11.2 mm 12.6°
2
1%
20:00
15°
1009.0 hPa 11.3 mm 12.0°
4
1%
23:00
15°
1009.8 hPa 11.5 mm 11.4°
2
1%
 05:32     20:46    Daglengte: 15:14 Maandag 30 Mei
02:00
14°
1009.2 hPa 11.8 mm 11.6°
2
1%
05:00
13°
1008.9 hPa 12.0 mm 10.5°
2
1%
08:00
14°
1010.1 hPa 12.1 mm 11.2°
2
1%
11:00
19°
1011.2 hPa 12.1 mm 11.0°
2
0%
14:00
20°
1011.5 hPa 12.1 mm 12.0°
4
0%
17:00
20°
1011.7 hPa 12.1 mm 12.4°
4
0%
20:00
18°
1012.7 hPa 12.1 mm 13.4°
4
0%
23:00
17°
1014.1 hPa 12.1 mm 14.0°
4
0%
 05:31     20:47    Daglengte: 15:16 Dinsdag 31 Mei
02:00
16°
1014.7 hPa 12.1 mm 13.5°
2
0%
05:00
15°
1015.6 hPa 12.1 mm 12.5°
1
1%
08:00
17°
1016.8 hPa 12.1 mm 14.0°
2
0%
11:00
22°
1017.2 hPa 12.1 mm 15.3°
0
0%
14:00
24°
1016.8 hPa 12.1 mm 17.1°
4
1%
17:00
23°
1016.1 hPa 12.1 mm 16.8°
5
1%
20:00
21°
1015.9 hPa 12.1 mm 17.6°
4
1%
23:00
19°
1016.8 hPa 12.1 mm 17.5°
3
0%
 05:31     20:48    Daglengte: 15:17 Woensdag 01 Jun
02:00
19°
1016.4 hPa 12.1 mm 16.7°
1
0%
05:00
18°
1016.2 hPa 12.1 mm 16.2°
1
0%
08:00
20°
1017.1 hPa 12.1 mm 17.9°
1
0%
11:00
24°
1017.0 hPa 12.1 mm 19.3°
2
1%
14:00
24°
1016.7 hPa 12.1 mm 19.7°
4
1%
17:00
24°
1015.7 hPa 12.1 mm 19.3°
5
1%
20:00
22°
1015.6 hPa 12.1 mm 19.6°
3
1%
23:00
20°
1015.6 hPa 12.1 mm 18.5°
3
0%
 05:30     20:49    Daglengte: 15:19 Donderdag 02 Jun
02:00
20°
1015.6 hPa 12.1 mm 18.5°
1
0%
05:00
20°
1014.6 hPa   18.2°
1
1%
08:00
21°
1015.4 hPa 24.2 mm 18.8°
2
1%
14:00
27°
1015.4 hPa 24.2 mm 21.3°
3
1%
20:00
23°
1013.6 hPa 24.2 mm 19.3°
5
1%
 05:30     20:50    Daglengte: 15:20 Vrijdag 03 Jun
02:00
21°
1013.9 hPa 24.2 mm 18.5°
2
0%
08:00
23°
1015.0 hPa 24.2 mm 19.1°
2
0%
14:00
28°
1014.0 hPa 24.2 mm 21.4°
4
0%
20:00
25°
1012.8 hPa 24.2 mm 19.6°
3
1%
 05:29     20:51    Daglengte: 15:22 Zaterdag 04 Jun
02:00
22°
1012.8 hPa 24.2 mm 15.9°
3
0%
08:00
23°
1014.0 hPa 24.2 mm 17.8°
2
0%
14:00
30°
1014.4 hPa 24.2 mm 20.7°
3
0%
20:00
26°
1013.9 hPa 24.2 mm 19.7°
2
1%
 05:29     20:51    Daglengte: 15:22 Zondag 05 Jun
02:00
20°
1012.6 hPa 0.5 mm 15.1°
1
41%
08:00
21°
1012.4 hPa 0.5 mm 15.5°
1
48%
14:00
25°
1011.5 hPa 0.9 mm 17.0°
2
47%
20:00
23°
1010.1 hPa 1.5 mm 16.3°
2
44%
 05:29     20:52    Daglengte: 15:23 Maandag 06 Jun
02:00
19°
1011.0 hPa 0.8 mm 14.7°
1
37%
08:00
20°
1011.1 hPa 0.7 mm 15.5°
1
50%
14:00
24°
1010.8 hPa 0.6 mm 16.3°
2
49%
20:00
22°
1010.1 hPa 0.5 mm 16.0°
3
44%
 05:28     20:53    Daglengte: 15:25 Dinsdag 07 Jun
02:00
19°
1011.2 hPa 0.6 mm 14.3°
1
38%
08:00
20°
1011.5 hPa 0.5 mm 14.8°
1
41%
14:00
24°
1011.1 hPa 0.5 mm 15.7°
1
45%
20:00
22°
1010.1 hPa 0.5 mm 15.3°
2
46%
 05:28     20:53    Daglengte: 15:25 Woensdag 08 Jun
02:00
19°
1011.4 hPa 0.9 mm 13.7°
1
51%
08:00
20°
1012.0 hPa 0.7 mm 14.3°
1
42%
14:00
24°
1011.7 hPa 1.2 mm 15.8°
2
35%
20:00
22°
1010.8 hPa 0.5 mm 15.7°
3
34%
 05:28     20:54    Daglengte: 15:26 Donderdag 09 Jun
02:00
19°
1012.2 hPa 0.6 mm 14.0°
1
33%
08:00
20°
1012.9 hPa 0.4 mm 14.7°
1
44%
14:00
25°
1012.7 hPa 0.3 mm 15.6°
3
34%
20:00
22°
1011.9 hPa 0.4 mm 15.7°
3
36%
 05:28     20:55    Daglengte: 15:27 Vrijdag 10 Jun
02:00
19°
1013.4 hPa 0.4 mm 13.8°
2
34%
  CAPE Lifted Index Hail Supercell Tornado SRH 3km CL BTM PRES CL TOP PRES Swiss DWD icon SMHI TS
 05:34     20:43    Daglengte: 15:09 Vandaag
08:00 364 J/kg -2.3 K 0 % 0 % 0 % 0 m²/s² 0 0 -1.19 2
09:00 459 J/kg -2.7 K 0 % 0 % 0 % 0 m²/s² 0 0 -1.95 80
10:00 570 J/kg -2.7 K 0 % 0 % 0 % 0 m²/s² 0 0 -1.98 3
11:00 600 J/kg -2.9 K 0 % 0 % 0 % 0 m²/s² 0 0 -2.09 2
12:00 303 J/kg -1.9 K 0 % 0 % 0 % 0 m²/s² 0 0 -1.03 2
13:00 27 J/kg -1.1 K 0 % 0 % 0 % 0 m²/s² 0 0 0.01 2
14:00 38 J/kg -0.4 K 0 % 0 % 0 % 0 m²/s² 0 0 0.92 3
15:00 7 J/kg 0.1 K 0 % 0 % 0 % 0 m²/s² 0 0 1.48 3
16:00 0 J/kg 0.8 K 0 % 0 % 0 % 0 m²/s² 0 0 2.3 3
17:00 0 J/kg 0.4 K 0 % 0 % 0 % 0 m²/s² 0 0 1.72 2
18:00 0 J/kg -1.9 K 0 % 0 % 0 % 0 m²/s² 0 0 -0.46 2
19:00 0 J/kg -2.4 K 0 % 0 % 0 % 0 m²/s² 0 0 -0.78 2
20:00 0 J/kg -2.9 K 0 % 0 % 0 % 0 m²/s² 0 0 -1.22 3
21:00 0 J/kg -3.1 K 0 % 0 % 0 % 0 m²/s² 0 0 -1.9 3
22:00 0 J/kg -2.6 K 0 % 0 % 0 % 0 m²/s² 0 0 -1.73 3
23:00 0 J/kg -2.9 K 0 % 0 % 0 % 0 m²/s² 0 0 -1.22 2
 05:34     20:44    Daglengte: 15:10 Morgen
00:00 0 J/kg -3.0 K 0 % 0 % 0 % 0 m²/s² 0 0 -1.14 3
01:00 0 J/kg -2.6 K 0 % 0 % 0 % 0 m²/s² 0 0 -1.16 3
02:00 56 J/kg -1.7 K 0 % 0 % 0 % 0 m²/s² 0 0 -0.11 3
03:00 59 J/kg -1.4 K 0 % 0 % 0 % 0 m²/s² 0 0 0.64 3
04:00 62 J/kg -1.2 K 0 % 0 % 0 % 0 m²/s² 0 0 0.24 45
05:00 55 J/kg -0.8 K 0 % 0 % 0 % 0 m²/s² 0 0 0.7 3
06:00 21 J/kg -0.8 K 0 % 0 % 0 % 0 m²/s² 0 0 0.58 3
07:00 6 J/kg -1.1 K 0 % 0 % 0 % 0 m²/s² 0 0 0.22 3
08:00 0 J/kg -1.4 K 0 % 0 % 0 % 0 m²/s² 0 0 -0.14 2
09:00 0 J/kg -1.6 K 0 % 0 % 0 % 0 m²/s² 0 0 -0.22 1
10:00 0 J/kg -1.7 K 0 % 0 % 0 % 0 m²/s² 0 0 -0.29 3
11:00 104 J/kg -1.7 K 0 % 0 % 0 % 0 m²/s² 0 0 -0.44 3
12:00 116 J/kg -1.3 K 0 % 0 % 0 % 0 m²/s² 0 0 -0.16 2
13:00 110 J/kg -1.8 K 0 % 0 % 0 % 0 m²/s² 0 0 -0.42 3
14:00 97 J/kg -1.9 K 0 % 0 % 0 % 0 m²/s² 0 0 -0.52 3
15:00 210 J/kg -2.0 K 0 % 0 % 0 % 0 m²/s² 0 0 -0.41 3
16:00 165 J/kg -1.9 K 0 % 0 % 0 % 0 m²/s² 0 0 -0.04 1
17:00 228 J/kg -2.7 K 0 % 0 % 0 % 0 m²/s² 0 0 -0.51 3
18:00 246 J/kg -3.5 K 0 % 0 % 0 % 0 m²/s² 0 0 -1.16 3
19:00 329 J/kg -3.6 K 0 % 0 % 0 % 0 m²/s² 0 0 -1.2 3
20:00 301 J/kg -5.0 K 0 % 0 % 0 % 0 m²/s² 0 0 -2.81 3
21:00 394 J/kg -5.4 K 0 % 0 % 0 % 0 m²/s² 0 0 -3.69 3
22:00 1100 J/kg -5.1 K 0 % 0 % 0 % 0 m²/s² 0 0 -3 3
23:00 815 J/kg -4.7 K 0 % 0 % 0 % 0 m²/s² 0 0 -3.05 2
 05:33     20:45    Daglengte: 15:12 Zaterdag 28 Mei
00:00 399 J/kg -4.2 K 0 % 0 % 0 % 0 m²/s² 0 0 -2.1 2
01:00 318 J/kg -4.1 K 0 % 0 % 0 % 0 m²/s² 0 0 -1.55 3
02:00 758 J/kg -3.9 K 0 % 0 % 0 % 0 m²/s² 0 0 -1.8 3
03:00 333 J/kg -4.3 K 0 % 0 % 0 % 0 m²/s² 0 0 -2.44 2
04:00 451 J/kg -4.0 K 0 % 0 % 0 % 0 m²/s² 0 0 -2.74 2
05:00 362 J/kg -3.6 K 0 % 0 % 0 % 0 m²/s² 0 0 -2.49 2
06:00 208 J/kg -2.8 K 0 % 0 % 0 % 0 m²/s² 0 0 -1.33 3
07:00 274 J/kg -2.4 K 0 % 0 % 0 % 0 m²/s² 0 0 -0.81 2
08:00 742 J/kg -2.7 K 0 % 0 % 0 % 0 m²/s² 0 0 -1.5 2
09:00 702 J/kg -2.6 K 0 % 0 % 0 % 0 m²/s² 0 0 -1.61 3
10:00 575 J/kg -2.2 K 0 % 0 % 0 % 0 m²/s² 0 0 -1.24 2
11:00 434 J/kg -2.4 K 0 % 0 % 0 % 0 m²/s² 0 0 -1.02 3
12:00 274 J/kg -2.2 K 0 % 0 % 0 % 0 m²/s² 0 0 -0.79 3
13:00 159 J/kg -2.3 K 0 % 0 % 0 % 0 m²/s² 0 0 -0.71 3
14:00 44 J/kg -1.8 K 0 % 0 % 0 % 0 m²/s² 0 0 -0.42 3
15:00 0 J/kg -1.0 K 0 % 0 % 0 % 0 m²/s² 0 0 0.59 2
16:00 0 J/kg -1.2 K 0 % 0 % 0 % 0 m²/s² 0 0 0.12 2
17:00 0 J/kg -0.6 K 0 % 0 % 0 % 0 m²/s² 0 0 0.99 3
18:00 0 J/kg 0.1 K 0 % 0 % 0 % 0 m²/s² 0 0 1.81 3
19:00 0 J/kg 0.8 K 0 % 0 % 0 % 0 m²/s² 0 0 2.9 3
20:00 0 J/kg 2.0 K 0 % 0 % 0 % 0 m²/s² 0 0 4.43 3
21:00 0 J/kg 2.1 K 0 % 0 % 0 % 0 m²/s² 0 0 4.98 3
22:00 0 J/kg 3.3 K 0 % 0 % 0 % 0 m²/s² 0 0 6.99 3
23:00 0 J/kg 4.5 K 0 % 0 % 0 % 0 m²/s² 0 0 7.38 3
 05:32     20:46    Daglengte: 15:14 Zondag 29 Mei
00:00 0 J/kg 4.7 K 0 % 0 % 0 % 0 m²/s² 0 0 6.92 3
01:00 0 J/kg 5.4 K 0 % 0 % 0 % 0 m²/s² 0 0 6.87 3
02:00 0 J/kg 5.7 K 0 % 0 % 0 % 0 m²/s² 0 0 6.99 80
03:00 0 J/kg 6.7 K 0 % 0 % 0 % 0 m²/s² 0 0 7.75 80
04:00 0 J/kg 6.7 K 0 % 0 % 0 % 0 m²/s² 0 0 7.9 80
05:00 0 J/kg 6.5 K 0 % 0 % 0 % 0 m²/s² 0 0 7.49 80
06:00 0 J/kg 6.1 K 0 % 0 % 0 % 0 m²/s² 0 0 7.24 80
07:00 0 J/kg 6.0 K 0 % 0 % 0 % 0 m²/s² 0 0 7.35 63
Temp Baro Wind Neerslag
  EWN Forecast EWN WRFDA DWD ICON FMI HIRLAM MET Norway GFS
 05:34     20:43    Daglengte: 15:09 Vandaag
08:00 21.0° 1019.1 hPa 2.1 m/s 0.0 mm 20.6° 1019.1 hPa 1.5 m/s 0.0 mm 21.1° 1019.0 hPa 1.0 m/s -2.0 mm 22.0° 1019.1 hPa 3.4 m/s 0.0 mm 20.8° 1018.9 hPa 1.4 m/s
11:00 23.9° 1019.9 hPa 2.8 m/s 0.0 mm 24.1° 1019.9 hPa 3.9 m/s 0.1 mm 23.8° 1019.9 hPa 2.8 m/s 0.1 mm 24.9° 1020.3 hPa 3.7 m/s 0.0 mm 23.8° 1020.1 hPa 3.2 m/s
14:00 25.5° 1019.7 hPa 4.8 m/s 0.0 mm 24.5° 1019.8 hPa 4.4 m/s 0.1 mm 23.9° 1020.1 hPa 4.7 m/s 0.0 mm 25.6° 1019.5 hPa 6.1 m/s 0.0 mm 23.8° 1020.1 hPa 4.8 m/s
17:00 25.1° 1019.3 hPa 4.2 m/s 0.0 mm 25.2° 1018.8 hPa 4.2 m/s 0.1 mm 23.8° 1019.4 hPa 3.9 m/s 0.0 mm 25.2° 1019.5 hPa 4.3 m/s 0.0 mm 22.2° 1019.2 hPa 3.3 m/s
20:00 23.8° 1018.7 hPa 2.6 m/s 0.0 mm 22.9° 1018.2 hPa 3.1 m/s 0.1 mm 22.1° 1018.8 hPa 1.9 m/s 0.0 mm 24.2° 1018.9 hPa 2.7 m/s 0.0 mm 20.6° 1018.9 hPa 1.9 m/s
23:00 21.5° 1019.3 hPa 1.0 m/s 0.0 mm 18.7° 1018.9 hPa 2.0 m/s 0.1 mm 19.9° 1019.4 hPa 0.8 m/s 0.0 mm 22.0° 1019.4 hPa 1.5 m/s 0.0 mm 19.3° 1019.7 hPa 1.5 m/s
 05:34     20:44    Daglengte: 15:10 Morgen
02:00 20.1° 1018.9 hPa 0.6 m/s 0.0 mm 17.4° 1018.6 hPa 2.2 m/s 0.1 mm 19.6° 1019.2 hPa 1.3 m/s 0.0 mm 20.2° 1018.5 hPa 0.1 m/s 0.0 mm 19.0° 1019.3 hPa 1.6 m/s
05:00 19.6° 1018.0 hPa 1.3 m/s 0.0 mm 16.1° 1018.5 hPa 1.6 m/s 0.1 mm 18.3° 1018.7 hPa 1.3 m/s 0.0 mm 20.0° 1017.8 hPa 1.4 m/s 0.0 mm 18.2° 1018.6 hPa 0.6 m/s
08:00 20.8° 1018.4 hPa 1.0 m/s 0.0 mm 21.7° 1018.3 hPa 1.0 m/s 0.1 mm 20.2° 1018.8 hPa 0.9 m/s 0.0 mm 20.4° 1018.5 hPa 2.4 m/s 0.0 mm 20.8° 1018.8 hPa 1.2 m/s
11:00 25.9° 1018.2 hPa 1.9 m/s 0.0 mm 26.9° 1017.9 hPa 3.0 m/s 0.1 mm 25.6° 1018.7 hPa 1.2 m/s 0.0 mm 24.7° 1018.2 hPa 2.2 m/s 0.0 mm 24.1° 1018.3 hPa 2.5 m/s
14:00 28.2° 1016.9 hPa 2.8 m/s 0.0 mm 29.1° 1016.8 hPa 3.2 m/s 0.1 mm 27.7° 1017.0 hPa 2.4 m/s 0.0 mm 27.2° 1017.3 hPa 2.3 m/s 0.0 mm 26.0° 1016.7 hPa 2.7 m/s
17:00 28.2° 1014.4 hPa 3.7 m/s 0.0 mm 28.3° 1013.8 hPa 4.6 m/s 0.1 mm 27.2° 1014.5 hPa 3.6 m/s 0.0 mm 28.3° 1015.1 hPa 2.4 m/s 0.0 mm 25.3° 1014.2 hPa 4.8 m/s
20:00 25.3° 1013.1 hPa 3.3 m/s 0.0 mm 25.4° 1012.8 hPa 3.6 m/s 0.1 mm 23.8° 1013.2 hPa 2.4 m/s 0.0 mm 25.4° 1013.6 hPa 3.4 m/s 0.0 mm 22.2° 1012.9 hPa 3.9 m/s
23:00 22.3° 1012.6 hPa 2.0 m/s 0.0 mm 21.4° 1012.5 hPa 2.6 m/s 0.1 mm 20.9° 1012.7 hPa 2.0 m/s 0.0 mm 22.5° 1013.2 hPa 0.6 m/s 0.0 mm 20.3° 1012.7 hPa 3.2 m/s
 05:33     20:45    Daglengte: 15:12 Zaterdag 28 Mei
02:00 21.1° 1011.2 hPa 1.4 m/s 0.0 mm 21.0° 1011.2 hPa 3.1 m/s 0.1 mm 20.2° 1011.3 hPa 1.4 m/s 0.0 mm 21.0° 1011.7 hPa 1.0 m/s 0.0 mm 19.5° 1011.2 hPa 1.3 m/s
05:00 20.2° 1009.8 hPa 1.2 m/s 0.0 mm 18.4° 1011.0 hPa 1.0 m/s 0.1 mm 19.9° 1010.1 hPa 2.2 m/s 0.0 mm 18.6° 1010.1 hPa 0.8 m/s
08:00 22.4° 1009.7 hPa 2.5 m/s 0.0 mm 22.2° 1010.9 hPa 4.6 m/s 0.2 mm 22.1° 1010.0 hPa 2.6 m/s 0.0 mm 21.1° 1009.6 hPa 1.2 m/s
11:00 24.6° 1009.4 hPa 4.8 m/s 0.0 mm 23.8° 1010.9 hPa 6.0 m/s 0.2 mm 24.0° 1009.9 hPa 5.3 m/s 0.0 mm 23.9° 1009.0 hPa 4.1 m/s
14:00 24.8° 1008.4 hPa 6.1 m/s 0.0 mm 23.6° 1010.9 hPa 6.7 m/s 0.2 mm 24.2° 1008.8 hPa 6.0 m/s 0.0 mm 23.2° 1009.3 hPa 7.0 m/s
17:00 24.1° 1007.4 hPa 6.2 m/s 0.0 mm 23.5° 1009.7 hPa 6.6 m/s 0.4 mm 23.1° 1007.9 hPa 5.9 m/s 0.0 mm 20.7° 1009.2 hPa 7.6 m/s
20:00 20.9° 1007.3 hPa 5.6 m/s 0.8 mm 20.9° 1009.8 hPa 6.1 m/s 0.4 mm 21.0° 1007.5 hPa 4.2 m/s 0.0 mm 17.4° 1010.4 hPa 7.8 m/s
23:00 18.7° 1008.1 hPa 6.6 m/s 3.0 mm 18.3° 1011.6 hPa 6.9 m/s 0.4 mm 19.8° 1007.1 hPa 4.8 m/s 0.1 mm 15.8° 1011.4 hPa 7.8 m/s
 05:32     20:46    Daglengte: 15:14 Zondag 29 Mei
02:00 17.9° 1007.0 hPa 5.8 m/s 0.3 mm 17.8° 1011.9 hPa 7.2 m/s 0.4 mm 18.0° 1005.8 hPa 5.4 m/s 0.4 mm 15.5° 1011.3 hPa 6.1 m/s
05:00 16.5° 1005.1 hPa 4.3 m/s 1.6 mm 15.5° 1011.1 hPa 4.8 m/s 0.4 mm 16.8° 1003.7 hPa 4.1 m/s 2.2 mm 15.1° 1010.8 hPa 3.4 m/s
08:00 17.1° 1004.7 hPa 4.2 m/s 3.3 mm 18.0° 1011.3 hPa 6.7 m/s 0.4 mm 16.9° 1003.1 hPa 3.6 m/s 4.8 mm 14.6° 1010.9 hPa 2.4 m/s
11:00 15.1° 1010.9 hPa 2.5 m/s 10.1 mm 15.1° 1010.9 hPa 2.5 m/s 10.1 mm
14:00 15.0° 1010.3 hPa 1.5 m/s 11.0 mm 15.0° 1010.3 hPa 1.5 m/s 11.0 mm
17:00 16.0° 1009.2 hPa 2.1 m/s 11.2 mm 16.0° 1009.2 hPa 2.1 m/s 11.2 mm
20:00 15.2° 1009.0 hPa 3.8 m/s 11.3 mm 15.2° 1009.0 hPa 3.8 m/s 11.3 mm
23:00 14.8° 1009.8 hPa 1.5 m/s 11.5 mm 14.8° 1009.8 hPa 1.5 m/s 11.5 mm
 05:32     20:46    Daglengte: 15:14 Maandag 30 Mei
02:00 13.9° 1009.2 hPa 2.2 m/s 11.8 mm 13.9° 1009.2 hPa 2.2 m/s 11.8 mm
05:00 12.6° 1008.9 hPa 2.2 m/s 12.0 mm 12.6° 1008.9 hPa 2.2 m/s 12.0 mm
08:00 14.4° 1010.1 hPa 2.2 m/s 12.1 mm 14.4° 1010.1 hPa 2.2 m/s 12.1 mm
11:00 18.9° 1011.2 hPa 2.1 m/s 12.1 mm 18.9° 1011.2 hPa 2.1 m/s 12.1 mm
14:00 19.9° 1011.5 hPa 3.6 m/s 12.1 mm 19.9° 1011.5 hPa 3.6 m/s 12.1 mm
17:00 20.0° 1011.7 hPa 4.1 m/s 12.1 mm 20.0° 1011.7 hPa 4.1 m/s 12.1 mm
20:00 18.3° 1012.7 hPa 4.1 m/s 12.1 mm 18.3° 1012.7 hPa 4.1 m/s 12.1 mm
23:00 16.9° 1014.1 hPa 3.8 m/s 12.1 mm 16.9° 1014.1 hPa 3.8 m/s 12.1 mm
 05:31     20:47    Daglengte: 15:16 Dinsdag 31 Mei
02:00 15.9° 1014.7 hPa 1.6 m/s 12.1 mm 15.9° 1014.7 hPa 1.6 m/s 12.1 mm
05:00 15.0° 1015.6 hPa 1.3 m/s 12.1 mm 15.0° 1015.6 hPa 1.3 m/s 12.1 mm
08:00 17.3° 1016.8 hPa 2.0 m/s 12.1 mm 17.3° 1016.8 hPa 2.0 m/s 12.1 mm
11:00 22.0° 1017.2 hPa 0.4 m/s 12.1 mm 22.0° 1017.2 hPa 0.4 m/s 12.1 mm
14:00 23.7° 1016.8 hPa 4.0 m/s 12.1 mm 23.7° 1016.8 hPa 4.0 m/s 12.1 mm
17:00 22.9° 1016.1 hPa 5.0 m/s 12.1 mm 22.9° 1016.1 hPa 5.0 m/s 12.1 mm
20:00 21.1° 1015.9 hPa 4.2 m/s 12.1 mm 21.1° 1015.9 hPa 4.2 m/s 12.1 mm
23:00 19.3° 1016.8 hPa 2.5 m/s 12.1 mm 19.3° 1016.8 hPa 2.5 m/s 12.1 mm
 05:31     20:48    Daglengte: 15:17 Woensdag 01 Jun
02:00 18.5° 1016.4 hPa 1.2 m/s 12.1 mm 18.5° 1016.4 hPa 1.2 m/s 12.1 mm
05:00 17.7° 1016.2 hPa 1.1 m/s 12.1 mm 17.7° 1016.2 hPa 1.1 m/s 12.1 mm
08:00 20.3° 1017.1 hPa 0.8 m/s 12.1 mm 20.3° 1017.1 hPa 0.8 m/s 12.1 mm
11:00 23.9° 1017.0 hPa 2.4 m/s 12.1 mm 23.9° 1017.0 hPa 2.4 m/s 12.1 mm
14:00 24.5° 1016.7 hPa 3.7 m/s 12.1 mm 24.5° 1016.7 hPa 3.7 m/s 12.1 mm
17:00 23.7° 1015.7 hPa 4.6 m/s 12.1 mm 23.7° 1015.7 hPa 4.6 m/s 12.1 mm
20:00 22.4° 1015.6 hPa 2.8 m/s 12.1 mm 22.4° 1015.6 hPa 2.8 m/s 12.1 mm
23:00 20.4° 1015.6 hPa 3.2 m/s 12.1 mm 20.4° 1015.6 hPa 3.2 m/s 12.1 mm
 05:30     20:49    Daglengte: 15:19 Donderdag 02 Jun
02:00 20.2° 1015.6 hPa 1.3 m/s 12.1 mm 20.2° 1015.6 hPa 1.3 m/s 12.1 mm
05:00 19.7° 1014.6 hPa 1.2 m/s 12.1 mm 19.7° 1014.6 hPa 1.2 m/s 12.1 mm
08:00 21.5° 1015.4 hPa 1.6 m/s 12.1 mm 21.5° 1015.4 hPa 1.6 m/s 12.1 mm
14:00 26.8° 1015.4 hPa 2.8 m/s 12.1 mm 26.8° 1015.4 hPa 2.8 m/s 12.1 mm
20:00 23.5° 1013.6 hPa 4.5 m/s 12.1 mm 23.5° 1013.6 hPa 4.5 m/s 12.1 mm
 05:30     20:50    Daglengte: 15:20 Vrijdag 03 Jun
02:00 20.9° 1013.9 hPa 2.0 m/s 12.1 mm 20.9° 1013.9 hPa 2.0 m/s 12.1 mm
08:00 22.6° 1015.0 hPa 2.5 m/s 12.1 mm 22.6° 1015.0 hPa 2.5 m/s 12.1 mm
14:00 28.2° 1014.0 hPa 4.5 m/s 12.1 mm 28.2° 1014.0 hPa 4.5 m/s 12.1 mm
20:00 24.9° 1012.8 hPa 3.3 m/s 12.1 mm 24.9° 1012.8 hPa 3.3 m/s 12.1 mm
 05:29     20:51    Daglengte: 15:22 Zaterdag 04 Jun
02:00 22.0° 1012.8 hPa 2.7 m/s 12.1 mm 22.0° 1012.8 hPa 2.7 m/s 12.1 mm
08:00 23.4° 1014.0 hPa 2.4 m/s 12.1 mm 23.4° 1014.0 hPa 2.4 m/s 12.1 mm
14:00 30.3° 1014.4 hPa 3.1 m/s 12.1 mm 30.3° 1014.4 hPa 3.1 m/s 12.1 mm
20:00 26.4° 1013.9 hPa 1.9 m/s 12.1 mm 26.4° 1013.9 hPa 1.9 m/s 12.1 mm
 05:29     20:51    Daglengte: 15:22 Zondag 05 Jun
02:00 20.0° 1012.6 hPa 1.4 m/s 0.5 mm
08:00 20.6° 1012.4 hPa 1.0 m/s 0.5 mm
14:00 25.2° 1011.5 hPa 2.0 m/s 0.9 mm
20:00 22.6° 1010.1 hPa 2.3 m/s 1.5 mm
 05:29     20:52    Daglengte: 15:23 Maandag 06 Jun
02:00 19.4° 1011.0 hPa 0.8 m/s 0.8 mm
08:00 20.2° 1011.1 hPa 0.8 m/s 0.7 mm
14:00 24.2° 1010.8 hPa 2.2 m/s 0.6 mm
20:00 21.8° 1010.1 hPa 2.8 m/s 0.5 mm
 05:28     20:53    Daglengte: 15:25 Dinsdag 07 Jun
02:00 19.2° 1011.2 hPa 1.3 m/s 0.6 mm
08:00 19.9° 1011.5 hPa 0.9 m/s 0.5 mm
14:00 24.1° 1011.1 hPa 1.3 m/s 0.5 mm
20:00 22.1° 1010.1 hPa 1.9 m/s 0.5 mm
 05:28     20:53    Daglengte: 15:25 Woensdag 08 Jun
02:00 19.0° 1011.4 hPa 1.0 m/s 0.9 mm
08:00 19.8° 1012.0 hPa 1.0 m/s 0.7 mm
14:00 24.5° 1011.7 hPa 2.5 m/s 1.2 mm
20:00 22.3° 1010.8 hPa 2.6 m/s 0.5 mm
 05:28     20:54    Daglengte: 15:26 Donderdag 09 Jun
02:00 19.1° 1012.2 hPa 1.2 m/s 0.6 mm
08:00 20.2° 1012.9 hPa 0.9 m/s 0.4 mm
14:00 24.9° 1012.7 hPa 2.5 m/s 0.3 mm
20:00 22.5° 1011.9 hPa 2.6 m/s 0.4 mm
 05:28     20:55    Daglengte: 15:27 Vrijdag 10 Jun
02:00 19.4° 1013.4 hPa 1.7 m/s 0.4 mm
FMI Hirlam - 7.5 km EWN WRFDA - 12 km DWD ICON - 7 km GFS - 25 km Basiskaart






























































Updatetijd (Europe/Amsterdam) Resolutie Lengte Stap
FMI Hirlam 07:00, 13:00, 19:00, 01:00 7.5 km 49h 1h
EWN WRFDA 04:15, 10:15, 16:15, 22:15 12 km 73h 1h
DWD ICON 05:45, 11:45, 17:45, 23:45 7 km 75h 1h
GFS 02:15, 08:15, 14:15, 20:15 25 km 237h 3h
30+ mm
25-30 mm
20-25 mm
15-20 mm
10-15 mm
6-10 mm
4-6 mm
2-4 mm
1-2 mm
0.5-1 mm
0.2-0.5 mm
0.1-0.2 mm
30+ mm
25-30 mm
20-25 mm
15-20 mm
10-15 mm
6-10 mm
4-6 mm
2-4 mm
1-2 mm
0.5-1 mm
0.2-0.5 mm
0.1-0.2 mm
Sneeuwval
Natte sneeuw
Hagel
Vorst
30+ mm
25-30 mm
20-25 mm
15-20 mm
10-15 mm
6-10 mm
4-6 mm
2-4 mm
1-2 mm
0.5-1 mm
0.2-0.5 mm
0.1-0.2 mm
Sneeuwval
Natte sneeuw
Hagel
Vorst
Onweer
50 mm
40 mm
30 mm
26 mm
22 mm
18 mm
14 mm
10 mm
9 mm
8 mm
7 mm
6 mm
5 mm
4.5 mm
4 mm
3.5 mm
3 mm
2.5 mm
2 mm
1.5 mm
1 mm
0.8 mm
0.6 mm
0.4 mm
0.2 mm
0.05 mm
35°
30°
25°
20°
15°
10°
-5°
-10°
-15°
-20°
-25°
-30°
-35°
33> m/s
29 m/s
25 m/s
21 m/s
17 m/s
14 m/s
11 m/s
8 m/s
5 m/s
3 m/s
0 m/s
2600 J/kg
2400 J/kg
2200 J/kg
2000 J/kg
1800 J/kg
1600 J/kg
1400 J/kg
1200 J/kg
1000 J/kg
800 J/kg
600 J/kg
400 J/kg
200 J/kg
70 dBZ
65 dBZ
60 dBZ
55 dBZ
50 dBZ
45 dBZ
40 dBZ
35 dBZ
30 dBZ
25 dBZ
20 dBZ
15 dBZ
10 dBZ
5 dBZ
-1 K
-2 K
-3 K
-4 K
-5 K
-6 K
-7 K
-8 K
-9 K
950 m²/s²
900 m²/s²
850 m²/s²
800 m²/s²
750 m²/s²
700 m²/s²
650 m²/s²
600 m²/s²
550 m²/s²
500 m²/s²
450 m²/s²
400 m²/s²
350 m²/s²
300 m²/s²
250 m²/s²
200 m²/s²
150 m²/s²
100 m²/s²
46 m/s
44 m/s
42 m/s
40 m/s
38 m/s
36 m/s
34 m/s
32 m/s
30 m/s
28 m/s
26 m/s
24 m/s
22 m/s
20 m/s
16 m/s
12 m/s
8 m/s
4 m/s
30 m/s
28 m/s
26 m/s
24 m/s
22 m/s
20 m/s
18 m/s
16 m/s
14 m/s
12 m/s
10 m/s
8 m/s
6 m/s
4 m/s
2 m/s
3.0
2.8
2.6
2.4
2.2
2.0
1.8
1.6
1.4
1.2
1.0
0.8
0.6
0.4
0.2
15
14
13
12
11
10
9
8
7
6
5
4
3
2
1
90%
80%
70%
60%
50%
40%
30%
20%
10%
42
40
38
36
34
32
30
28
26
24
22
20
18
16
14
12
90+ cm
80-90 cm
70-80 cm
60-70 cm
50-60 cm
40-50 cm
30-40 cm
20-30 cm
10-20 cm
1-10 cm
Sneeuwval
Natte sneeuw
Regen
>120 mm
115 mm
110 mm
105 mm
100 mm
95 mm
90 mm
85 mm
80 mm
75 mm
70 mm
65 mm
60 mm
55 mm
50 mm
45 mm
45 mm
40 mm
35 mm
30 mm
25 mm
20 mm
15 mm
10 mm
5 mm
0.1 mm
960 hPa
880 hPa
800 hPa
720 hPa
640 hPa
560 hPa
584 gpdm
568 gpdm
552 gpdm
536 gpdm
520 gpdm
504 gpdm
488 gpdm
Extreem zwaar Noodweer Kans op onweer
15% 15% 5% 50% 15%

Dag




Kaart






35°
30°
25°
20°
15°
10°
-